Regional Weather Roundup
Issued by NWS

Home | Current Version | Previous Version | Text Only | Print | Product List | Glossary On
Versions: 1 2 3 4 5 6 7 8 9 10 11 12 13 14 15 16 17 18 19 20 21 22 23 24 25 26 27
000
ASUS44 KJAN 231510
RWRMS

MISSISSIPPI HOURLY WEATHER ROUNDUP
NATIONAL WEATHER SERVICE JACKSON MS
1000 AM CDT SUN APR 23 2017

NOTE: "FAIR: INDICATES FEW OR NO CLOUDS BELOW 12,000 FEET WITH NO
SIGNIFICANT WEATHER AND/OR OBSTRUCTIONS TO VISIBILITY.

MSZ001>002-007>008-010>013-018>021-025>028-034>036-231600-
NORTHWEST MISSISSIPPI

CITY           SKY/WX    TMP DP  RH WIND       PRES   REMARKS
CLEVELAND      CLOUDY    54  51  89 N15G23    29.98S
GREENWOOD      CLOUDY    53  51  93 NW6       29.96S
GREENVILLE     CLOUDY    54  48  80 N12       29.99R
OLIVE BRANCH   CLOUDY   N/A N/A N/A N8G20     29.93S
OXFORD         CLOUDY    48  46  93 NW13G18   29.95R
TUNICA         CLOUDY    52  45  76 N16       29.98S
WINONA         CLOUDY    52  50  94 NW8       29.94R
$$

MSZ003>006-009-014>017-022>024-029>033-037>039-231600-
NORTHEAST MISSISSIPPI

CITY           SKY/WX    TMP DP  RH WIND       PRES   REMARKS
COLUMBUS AFB   CLOUDY    57  55  94 NW10      29.88S
CORINTH        DRIZZLE   52  48  87 NW12      29.89S
STARKVILLE     LGT RAIN  54  52  94 W5        29.92S
TUPELO         CLOUDY    53  48  83 NW9       29.89S
$$

MSZ040-058-231600-
CENTRAL MISSISSIPPI

CITY           SKY/WX    TMP DP  RH WIND       PRES   REMARKS
JACKSON INTL   CLOUDY    56  47  71 NW15      29.97R
JACKSON HAWKNS CLOUDY    55  48  77 NW10      29.98R
MADISON        CLOUDY    52  46  82 NW9G16    29.97R
MERIDIAN KEY   CLOUDY    58  51  78 W8G20     29.93R
MERIDIAN NAS   CLOUDY    58  49  72 W15       29.92R
RAYMOND        CLOUDY    55  50  82 MISG      29.98R
VICKSBURG VKS  CLOUDY    55  50  82 NW7       29.98S
$$

MSZ059>079-231600-
SOUTH MISSISSIPPI

CITY           SKY/WX    TMP DP  RH WIND       PRES   REMARKS
BROOKHAVEN     CLOUDY    59  55  88 NW9       29.99R
COLUMBIA       CLOUDY    57 N/A N/A NW16      29.98S
HATTIESBURG    CLOUDY    59  52  77 NW14G20   29.95R
LAUREL         CLOUDY    56  55  95 NW9       29.95S
MCCOMB         CLOUDY    56  50  80 N13G22    29.97R
NATCHEZ        CLOUDY    54  50  86 NW13G21   30.01R
PINE BELT      CLOUDY    57  50  77 NW10      29.95R
$$

MSZ080>082-231600-
COASTAL MISSISSIPPI

CITY           SKY/WX    TMP DP  RH WIND       PRES   REMARKS
BAY ST LOUIS   CLOUDY    63  55  77 N12       29.93R
BILOXI         CLOUDY    63  59  87 N6        29.90R
PASCAGOULA     CLOUDY    63  58  83 NW8G16    29.89R
GULFPORT       PTSUNNY   64  59  83 NW15      29.90R
$$

LAZ007>009-015>016-023>026-231600-
NORTHEAST LOUISIANA

CITY           SKY/WX    TMP DP  RH WIND       PRES   REMARKS
BASTROP        CLOUDY    53  52  97 N5        30.04S
TALLULAH/VBURG CLOUDY    55  49  80 NW6       30.01R
VIDALIA        CLOUDY    57  48  72 NW13G22   30.01R
$$




USA.gov is the U.S. government's official web portal to all federal, state and local government web resources and services.